Location: North Evanston
(42.0634°N, 87.6976°W)
Time: 13:37:08
(UTC+00:00)

Vanguard 3 - Pass Details

Date: 16 May 2026
Orbit: 507 x 3204 km, 33.3° (Epoch: 6 June)

Event Time Altitude Azimuth Distance (km) Brightness Sun altitude
Rises 15:04:51 0° 168° (SSE) 5,808 11.8 48.8°
Reaches altitude 10° 15:14:19 10° 135° (SE) 5,533 12.2 50.5°
Maximum altitude 15:17:14 11° 125° (SE) 5,647 12.3 51.0°
Drops below altitude 10° 15:20:16 10° 115° (ESE) 5,850 12.4 51.5°
Sets 15:31:51 0° 86° (E) 7,153 12.4 53.4°
